www.pogodaiklimat.ru

ПОГОДА в Монетте, MO

  • Прогноз погоды в Монетте
  • Монитор погоды в Монетте
  • Климат в Монетте

АРХИВ ПОГОДЫ в Монетте

Время (UTC), дата Ветер
(напр.,м/с)
 
Видим.   Явления Облачность Т
(С)
Тd
(С)
f
(%)
Тe
(С)
Тes
(С)
Комфортность

P
(гПа)

Po
(гПа)
Тmin
(С)
Tmax
(С)
R
(мм)
SD
(см)
12:35 20.07 Ю  16 км    ясно  +26.0  +23.0  84  +35  +36  очень
душно 
  967.8         
12:55 20.07 Ю  7
{10} 
16 км    ясно  +27.0  +23.0  79  +36  +37  очень
душно 
  967.8         
13:15 20.07 Ю  16 км    ясно  +27.0  +23.0  79  +36  +38  очень
душно 
  968.1         
13:35 20.07 Ю  6
{9} 
16 км    ясно  +27.0  +23.0  79  +36  +38  очень
душно 
  968.1         
13:55 20.07 Ю  16 км    ясно  +28.0  +23.0  74  +37  +39  очень
душно 
  967.4         
14:15 20.07 Ю  16 км    ясно  +28.0  +23.0  74  +37  +40  очень
душно 
  967.4         
14:35 20.07 ЮЗ  7
{9} 
16 км    ясно  +29.0  +23.0  70  +39  +41  очень
душно 
  967.4         
14:55 20.07 Ю  7
{9} 
16 км    ясно  +30.0  +23.0  66  +40  +42  очень
душно 
  967.1         
15:15 20.07 ЮЗ  16 км    ясно  +30.0  +24.0  70  +41  +45  опасность
перегрева 
  967.1         
15:35 20.07 Ю  7
{10} 
16 км    ясно  +31.0  +23.0  62  +41  +44  опасность
перегрева 
  967.1         
15:55 20.07 Ю  7
{9} 
16 км    ясно  +31.0  +23.0  62  +41  +43  опасность
перегрева 
  967.1         
16:15 20.07 ЮЗ  7
{9} 
16 км    ясно  +31.0  +23.0  62  +41  +44  опасность
перегрева 
  966.8         
16:35 20.07 Ю  7
{9} 
16 км    ясно  +32.0  +23.0  59  +42  +46  опасность
перегрева 
  967.1         
16:55 20.07 Ю  16 км    ясно  +32.0  +23.0  59  +42  +47  опасность
перегрева 
  967.1         
17:15 20.07 Ю  7
{8} 
16 км    ясно  +32.0  +23.0  59  +42  +46  опасность
перегрева 
  966.8         
17:35 20.07 ЮЗ  5
{8} 
16 км    ясно  +32.0  +23.0  59  +42  +50  опасность
перегрева 
  966.8         
17:55 20.07 Ю  6
{9} 
16 км    ясно  +33.0  +23.0  56  +43  +49  опасность
перегрева 
  966.5         
18:15 20.07 ЮЗ  7
{9} 
16 км    ясно  +33.0  +22.0  52  +41  +46  опасность
перегрева 
  966.5         
18:35 20.07 ЮЗ  16 км    ясно  +33.0  +23.0  56  +43  +51  опасность
перегрева 
  966.5         
18:55 20.07 Ю  6
{9} 
16 км    5/5 1140 м  +33.0  +23.0  56  +43  +46  опасность
перегрева 
  966.1         
19:15 20.07 Ю  7
{9} 
16 км    ясно  +33.0  +23.0  56  +43  +47  опасность
перегрева 
  966.1         
19:35 20.07 Ю  7
{9} 
16 км    ясно  +33.0  +22.0  52  +41  +44  опасность
перегрева 
  966.1         
19:55 20.07 Ю  16 км    ясно  +33.0  +23.0  56  +43  +50  опасность
перегрева 
  966.1         
20:15 20.07 Ю  6
{8} 
16 км    ясно  +33.0  +23.0  56  +43  +47  опасность
перегрева 
  965.8         
20:35 20.07 Ю  16 км    ясно  +33.0  +22.0  52  +41  +48  опасность
перегрева 
  965.8         
20:55 20.07 Ю  16 км    ясно  +33.0  +22.0  52  +41  +44  опасность
перегрева 
  965.5         
21:15 20.07 Ю  16 км    ясно  +33.0  +22.0  52  +41  +44  опасность
перегрева 
  965.5         
21:35 20.07 Ю  6
{9} 
16 км    ясно  +32.0  +22.0  56  +41  +43  опасность
перегрева 
  965.5         
21:55 20.07 Ю  16 км    ясно  +32.0  +22.0  56  +41  +44  опасность
перегрева 
  965.5         
22:15 20.07 Ю  4
{8} 
16 км    ясно  +32.0  +22.0  56  +41  +43  опасность
перегрева 
  965.5         
22:35 20.07 Ю  16 км    ясно  +32.0  +22.0  56  +41  +43  опасность
перегрева 
  965.2         
22:55 20.07 Ю  16 км    ясно  +31.0  +22.0  59  +40  +41  очень
душно 
  964.8         
23:15 20.07 Ю  5
{7} 
16 км    ясно  +31.0  +22.0  59  +40  +40  очень
душно 
  964.5         
23:35 20.07 Ю  16 км    ясно  +30.0  +22.0  62  +39  +40  очень
душно 
  965.2         
23:55 20.07   16 км    ясно  +30.0  +23.0  66  +40  +42  очень
душно 
  965.5         
00:15 21.07 Ю  16 км    ясно  +29.0  +23.0  70  +39  +39  очень
душно 
  965.5         
00:35 21.07 Ю  16 км    ясно  +28.0  +23.0  74  +37  +37  очень
душно 
  965.5         
00:55 21.07 Ю  16 км    ясно  +27.0  +23.0  79  +36  +36  очень
душно 
  965.5         
01:15 21.07 Ю  16 км    ясно  +27.0  +22.0  74  +35  +35  очень
душно 
  965.5         
01:35 21.07 Ю  16 км    ясно  +26.0  +22.0  79  +34  +34  очень
душно 
  965.5         
01:55 21.07 Ю  16 км    ясно  +26.0  +22.0  79  +34  +34  очень
душно 
  965.5         
02:15 21.07 ЮВ  16 км    ясно  +26.0  +22.0  79  +34  +34  очень
душно 
  965.8         
02:35 21.07 ЮВ  16 км    ясно  +25.0  +22.0  83  +32  +32  очень
душно 
  965.8         
02:55 21.07 Ю  16 км    ясно  +25.0  +22.0  83  +32  +32  очень
душно 
  965.8         
03:15 21.07 Ю  16 км    ясно  +25.0  +22.0  83  +32  +32  очень
душно 
  966.1         
03:35 21.07 ЮВ  16 км    ясно  +25.0  +22.0  83  +32  +32  очень
душно 
  966.5         
03:55 21.07 ЮВ  16 км    ясно  +24.0  +22.0  89  +31  +31  очень
душно 
  966.8         
04:15 21.07 ЮВ  16 км    ясно  +24.0  +22.0  89  +31  +31  очень
душно 
  967.1         

 

Местоположение метеостанции Monett Municipal Airport: широта 36.9062 долгота -94.0128 высота над уровнем моря 401 м.

В архиве по умолчанию представлена погода в Монетте за последние 1-2 суток. Обновление информации о фактической погоде в базе происходит ежечасно! Архивные данные за месяц целиком и за предыдущие месяцы Вы можете получить, выбрав интересующий диапазон дат из раскрывающегося списка и нажав кнопку "Ввод!".

Внимание! Архив погоды МЕТАР в базе сайта хранится не более 60 дней. Нет смысла пытаться выбрать более раннюю дату.

Внимание! Время в таблицах - всемирное. Для получения местного времени необходимо прибавить поправку, которая в Монетте равна -6 ч.

Ветер - указаны скорость ветра в м/с и направление, откуда дует ветер: С - северный, СВ - северо-восточный, В - восточный, ЮВ - юго-восточный, Ю - южный, ЮЗ - юго-западный, З - западный, СЗ - северо-западный.
Видимость - горизонтальная дальность видимости в метрах или километрах. При видимости от 1 до 10 км при отсутствии осадков обычно наблюдается дымка, при ухудшении видимости до 1 км и менее - туман. В сухую погоду видимость может ухудшаться дымом, пылью или мглою.
Атмосферные явления - указаны явления, наблюдавшиеся в указанный момент времени.
Облачность - указаны через наклонную черту верхняя и нижняя облачность в баллах и высота нижней границы облаков в метрах. Внимание: облачность, как и прочие метеорологические величины в США измеряются автоматическими метеостанциями. Указанные значения в баллах носят условный характер и показывают процент времени, в течение которого, в среднем, лазерный луч высотомера отражался от облаков обратно.
T - Температура воздуха - температура, измеренная на высоте 2 м над землей.
Td - Температура точки росы - температура, при понижении до которой содержащийся в воздухе водяной пар достигнет насыщения.
f - Относительная влажность воздуха - влажноcть воздуха, измеренная на высоте 2 м над землей.
Te - Эффективная температура - температура, которую ощущает одетый по сезону человек в тени. Характеристика душности погоды. При расчете учитывается влияние влажности воздуха и скорости ветра на теплоощущения человека.
Tes - Эффективная температура на солнце - температура, которую ощущает человек, с поправкой на солнечный нагрев. Характеристика знойности погоды. Зависит от высоты солнца над горизонтом, облачности и скорости ветра. Ночью, в пасмурную погоду, а также при ветре 12 м/с и более поправка равна нулю.
P - Атмосферное давление - приведенное к уровню моря атмосферное давление.
Po - Атмосферное давление - измеренное на уровне метеостанции атмосферное давление.
Tmin - Минимальная температура - минимум температуры воздуха на высоте 2 м над землей.
Tmax - Максимальная температура - максимум температуры воздуха на высоте 2 м над землей.
R - Количество осадков - Количество выпавших осадков за 3 или 6 часов, мм.
SD - Снежный покров - Высота снежного покрова, см.